Miscellaneous Local Product
Issued by NWS Hastings, NE

Home | Current Version | Previous Version | Text Only | Print | Product List | Glossary On
Versions: 1 2 3 4 5 6 7 8 9 10 11 12 13 14 15 16 17 18 19 20 21 22 23 24 25 26 27 28 29 30 31 32 33 34 35 36 37 38 39 40 41 42 43 44 45 46 47 48 49 50
000
AXUS43 KGID 211602
MISGRI

GID CWA HOURLY WEATHER ROUNDUP
NATIONAL WEATHER SERVICE HASTINGS NE
1000 AM CST TUE FEB 21 2017

NOTE: "FAIR" INDICATES FEW OR NO CLOUDS BELOW 12,000 FEET WITH NO
SIGNIFICANT WEATHER AND/OR OBSTRUCTIONS TO VISIBILITY.

...SOUTH CENTRAL NEBRASKA...

CITY           SKY/WX    TMP DP  RH WIND       PRES   REMARKS
GRAND ISLAND   SUNNY     56  33  42 SW22G29   29.97F
HASTINGS       SUNNY     55  35  47 SW14G22   29.99F
KEARNEY        SUNNY     52  27  37 SW14      29.98F
ORD            SUNNY     55  24  30 SW10      29.90F
YORK           SUNNY     52  39  62 SW13      29.99F
AURORA         SUNNY     53  37  55 SW17      29.97F
LEXINGTON      SUNNY     56  21  26 SW10      29.97F
HOLDREGE       SUNNY     51  23  33 SW13G18   29.99F
HEBRON         SUNNY     54  39  57 W9        30.03R

...NEBRASKA PANHANDLE...

CITY           SKY/WX    TMP DP  RH WIND       PRES   REMARKS
CHADRON        SUNNY     59  33  37 SW15      29.86S
ALLIANCE       SUNNY     57  29  34 SW12      29.91F
SCOTTSBLUFF    SUNNY     59  30  33 W8        29.92F
SIDNEY         SUNNY     60  29  30 W17       29.98S

...WESTERN AND NORTH CENTRAL NEBRASKA...

CITY           SKY/WX    TMP DP  RH WIND       PRES   REMARKS
VALENTINE      SUNNY     58  26  29 SW18G28   29.82F
AINSWORTH      SUNNY     58  29  33 SW17      29.84S
ONEILL         SUNNY     56  26  32 SW14      29.86F
BROKEN BOW     SUNNY     55  24  30 SW15      29.93F
IMPERIAL       SUNNY     60  26  27 NW7       29.99R
NORTH PLATTE   SUNNY     49  29  46 CALM      29.96F
MCCOOK         SUNNY     50  25  37 SW10      29.99F

...EASTERN NEBRASKA...

CITY           SKY/WX    TMP DP  RH WIND       PRES   REMARKS
NORFOLK        SUNNY     55  36  48 S16       29.90F
SO SIOUX CITY  SUNNY     54  42  64 SW12      29.92F
TEKAMAH        SUNNY     50  43  77 S10       29.96F
COLUMBUS       SUNNY     52  39  62 SW12      29.96F
ALBION         SUNNY     55  32  41 SW17      29.92F
OMAHA EPPLEY   MOSUNNY   47  41  80 S7        29.99F
OFFUTT AFB     SUNNY    123 N/A N/A E3        30.01S
MILLARD        SUNNY     52  44  72 CALM      29.99F
LINCOLN        SUNNY     53  40  61 SW9       30.02R
NEBRASKA CITY  SUNNY     52  40  63 SW8       30.01S
BEATRICE       SUNNY     51  43  74 W5        30.02S
FALLS CITY     SUNNY     49  44  83 W6        30.03R

...NORTHERN KANSAS...

CITY           SKY/WX    TMP DP  RH WIND       PRES   REMARKS
GOODLAND       SUNNY     54  19  25 NW3       30.03R
HILL CITY      SUNNY     55  30  38 SW8       30.04S
NORTON         SUNNY     55  21  26 SW10G16   30.01
SMITH CENTER   SUNNY     48  34  57 SW9       30.04F
HAYS           SUNNY     54  33  45 SW14      30.06S
RUSSELL        SUNNY     51  35  54 SW12      30.04S
CONCORDIA      SUNNY     54  42  64 W8        30.03S
SALINA         SUNNY     50  39  66 E7        30.04F
TOPEKA         SUNNY     52  44  74 W6        30.02R



USA.gov is the U.S. government's official web portal to all federal, state and local government web resources and services.